Weather History for KGUY - June, 2013

Change the Weather History Date:

Saturday, June 1, 2013

  Actual Average Record
Temperature  
Mean Temperature 66 °F 70 °F  
Max Temperature 80 °F 83 °F 100 °F (2002)
Min Temperature 52 °F 56 °F 50 °F (2004)
Degree Days  
Heating Degree Days 0 1  
Month to date heating degree days 0 1  
Since 1 June heating degree days 0 1  
Since 1 July heating degree days 4311 4450  
Cooling Degree Days 1 6  
Month to date cooling degree days 1 6  
Year to date cooling degree days 205 114  
Since 1 June cooling degree days 1 6  
Growing Degree Days 16 (Base 50)    
Moisture  
Dew Point 39 °F    
Average Humidity 41    
Maximum Humidity 59    
Minimum Humidity 23    
Precipitation  
Precipitation 0.00 in 0.13 in 0.13 in (2003)
Month to date precipitation 0.00 0.13  
Year to date precipitation 2.35 6.38  
Snow  
Snow 0.00 in - - ()
Month to date snowfall 0.0  
Since 1 June snowfall 0.0  
Since 1 July snowfall 22.3  
Snow Depth 0.00 in    
Sea Level Pressure  
Sea Level Pressure 29.94 in    
Wind  
Wind Speed 16 mph (North)    
Max Wind Speed 31 mph    
Max Gust Speed 38 mph    
Visibility 10 miles    
Events      
T = Trace of Precipitation, MM = Missing Value Source: NWS Daily Summary

Daily Weather History Graph

Daily Weather History Graph

Search for Another Location

Airport or City:

Trip Planner

Search our weather history database for the weather conditions in past years. The results will help you decide how hot, cold, wet, or windy it might be!

Date:

Astronomy

Jun. 01, 2013 Rise Set
Actual Time 6:28 AM CDT 8:59 PM CDT
Civil Twilight 5:58 AM CDT 9:29 PM CDT
Nautical Twilight 5:21 AM CDT 10:06 PM CDT
Astronomical Twilight 4:40 AM CDT 10:48 PM CDT
Moon 2:15 AM CDT (6/1) 2:39 PM CDT (6/1)
Length of Visible Light 15h 30m
Length of Day
14h 30m
Last Quarter, 40% of the Moon is Illuminated
Jun 1
Last Quarter
Jun 8
New
Jun 16
First Quarter
Jun 23
Full
Jun 29
Last Quarter

Hourly Weather History & Observations

Time (CDT) Temp. Dew Point Humidity Pressure Visibility Wind Dir Wind Speed Gust Speed Precip Events Conditions
12:53 AM 69.1 °F 39.0 °F 33% 29.71 in 10.0 mi South 4.6 mph - N/A   Clear
1:53 AM 63.0 °F 42.1 °F 46% 29.75 in 10.0 mi Variable 4.6 mph - N/A   Clear
2:53 AM 63.0 °F 37.0 °F 38% 29.78 in 10.0 mi North 16.1 mph - N/A   Clear
3:53 AM 59.0 °F 41.0 °F 51% 29.83 in 10.0 mi NNE 17.3 mph 25.3 mph N/A   Clear
4:53 AM 55.9 °F 39.9 °F 55% 29.85 in 10.0 mi NNE 11.5 mph - N/A   Clear
5:53 AM 53.1 °F 39.9 °F 61% 29.90 in 10.0 mi North 8.1 mph - N/A   Clear
6:53 AM 53.1 °F 39.9 °F 61% 29.93 in 10.0 mi NNW 6.9 mph - N/A   Clear
7:53 AM 57.0 °F 39.9 °F 53% 29.96 in 10.0 mi North 12.7 mph - N/A   Clear
8:53 AM 63.0 °F 39.9 °F 43% 29.96 in 10.0 mi North 20.7 mph 29.9 mph N/A   Clear
9:53 AM 66.0 °F 39.0 °F 37% 29.98 in 10.0 mi NNW 26.5 mph 33.4 mph N/A   Clear
10:53 AM 71.1 °F 37.9 °F 30% 29.97 in 10.0 mi North 21.9 mph 32.2 mph N/A   Clear
11:53 AM 72.0 °F 37.9 °F 29% 29.97 in 10.0 mi NNW 20.7 mph 31.1 mph N/A   Clear
12:53 PM 75.9 °F 37.0 °F 24% 29.96 in 10.0 mi NNW 23.0 mph 34.5 mph N/A   Clear
1:53 PM 78.1 °F 37.0 °F 23% 29.95 in 10.0 mi North 24.2 mph 38.0 mph N/A   Mostly Cloudy
2:53 PM 79.0 °F 37.0 °F 22% 29.94 in 10.0 mi NNW 26.5 mph 35.7 mph N/A   Mostly Cloudy
3:53 PM 79.0 °F 37.9 °F 23% 29.95 in 10.0 mi NNW 21.9 mph 36.8 mph N/A   Clear
4:53 PM 79.0 °F 37.9 °F 23% 29.96 in 10.0 mi NNW 23.0 mph 29.9 mph N/A   Clear
5:53 PM 78.1 °F 39.0 °F 25% 29.97 in 10.0 mi NNW 20.7 mph 28.8 mph N/A   Clear
6:53 PM 77.0 °F 39.0 °F 25% 29.98 in 10.0 mi North 16.1 mph 21.9 mph N/A   Clear
7:53 PM 73.9 °F 39.9 °F 29% 29.99 in 10.0 mi North 15.0 mph - N/A   Clear
8:53 PM 71.1 °F 41.0 °F 34% 30.01 in 10.0 mi NNE 15.0 mph - N/A   Clear
9:53 PM 66.0 °F 41.0 °F 40% 30.03 in 10.0 mi NE 6.9 mph - N/A   Clear
10:53 PM 64.0 °F 42.1 °F 45% 30.05 in 10.0 mi NE 8.1 mph - N/A   Clear
11:53 PM 61.0 °F 42.1 °F 50% 30.06 in 10.0 mi NE 5.8 mph - N/A   Clear